STARLINK-32079, 60336

Orbit data source: Space-Track

STARLINK-32079, 60336 is a payload satellite owned by SpaceX/Seattle (US) in LEO that was launched on Fri, 02 Aug 2024 UTC via an FALCON 9 launch vehicle from the Air Force Eastern Test Range (AFETR). Payload-class satellites include a variety of spacecraft equipped with specific instruments for various scientific and technological missions. These include communications satellites like Starlink; space stations such as the ISS; scientific satellites like the Hubble; Earth observation satellites from companies like Planet Labs, Umbra, and HawkEye 360; GPS; miniature CubeSats for education and research; and military/defense satellites.

Loading next visibility...
Identifier
60336, 2024-136H
Orbit
LEO
Last TLE update
1 day ago
Origin
Manufacturer
SpaceX/Seattle
Mission
Operational Commercial Communications
Bus & Motor
STARLINK V2M, Unknown motor
Mass
730 kg wet, ~700 kg dry
Launch date (UTC)
2024-08-02 (9 months ago)
Launch vehicle
FALCON 9
Launch site
Air Force Eastern Test Range (AFETR)
Object type
Payload
Rocket body
Debris
Shape & HBR
Box + 2 Pan, 29 m
Radar Cross Section
33.884 m², Large (>1 m²)

Expand to show TLE details & history

TLE from 1 day ago
0 STARLINK-32079
1 60336U 24136H   25128.08501265 -.00001979  00000-0 -54725-4 0  9994
2 60336  53.1608  55.2783 0001022  86.9451 273.1666 15.30199829 42870
Epoch: 2025-05-08T02:02Z
Definitive object data (Epoch: 2025-05-08T02:02:25.092Z)
Latitude
-0.0001°
Longitude
158.5131°
Altitude
476.077 km
Speed
7.629 km/s
True Right ascension
03h 41m 06s
True Declination
0° 00' 00"
Sunlit
Object was in daylight at TLE epoch
Visualization TLE readout
Latitude
-40.40835°
Longitude
113.73143°
Altitude
489.134 km
Speed
7.62 km/s
Apparent Right ascension
01h 24m 32s
Apparent Declination
-40° 30' 47"
Sunlit
Object is in daylight
Visualization observer readout
Local Sidereal Time
14:10:03
Azimuth
97.597° ESE
Elevation
-81.295°
Doppler factor
1
Orbital elements
Apogee altitude
476.172 km
Perigee altitude
474.771 km
Semi-major axis
6,853.609 km
Eccentricity
0.0001022
Inclination
53.1608°
RAAN
55.2783°
Arg. of periapsis
86.9451°
True anomaly
273.15491°
Mean anomaly
273.1666°
Eccentric anomaly
273.16075°
Mean motion
3.82529 °/min
BSTAR
-0.000054725
Orbital period
94.11 mins
Loading maneuver chart data...
Loading SW <> Apogee altitude chart data...
Loading historical data...
Loading historical data...
Loading historical data...
Loading historical data...
Loading historical data...
Loading historical data...
Loading historical data...

STARLINK-32079 Visibility forecast

Observer location: undefined°, undefined°

Span
Click to sort rows by Start time (UTC) header in descending order
Start Az.
Max El. time (UTC)
Max El. Az.
Max El.
End time (UTC)
End Az.
5 mins2025-05-09 20:31:17.765Z179.387° S2025-05-09 20:33:17.765Z140.712° SSE22.116°2025-05-09 20:36:17.765Z78.538° E
5 mins2025-05-09 22:09:17.765Z266.262° W2025-05-09 22:11:17.765Z320.436° NNW32.493°2025-05-09 22:14:17.765Z33.953° NE
5 mins2025-05-10 03:06:17.765Z341.161° N2025-05-10 03:08:17.765Z27.019° NE24.121°2025-05-10 03:11:17.765Z86.194° E
5 mins2025-05-10 04:44:17.765Z287.736° WNW2025-05-10 04:46:17.765Z229.243° WSW34.545°2025-05-10 04:49:17.765Z156.239° SSE
|